Location: Boitzum
(52.1496°N, 9.6943°E)
Time: 00:27:04
(UTC+00:00)

ATLAS CENTAUR R/B - Pass Details

Date: 13 January 2026
Orbit: 313 x 360 km, 64.6° (Epoch: 9 February)

Event Time Altitude Azimuth Distance (km) Brightness Sun altitude
Exits shadow 06:20:02 14° 297° (WNW) 1,193 2.4 -9.5°
Maximum altitude 06:22:17 33° 236° (SW) 659 1.5 -9.2°
Drops below altitude 10° 06:25:03 10° 170° (S) 1,364 3.8 -8.8°
Sets 06:27:06 0° 160° (SSE) 2,187 5.1 -8.5°
